Temperature
15 15 15 14 14 14 14 14 15 16 17 17 18 16 14 13 12 11 11 11 11 11 11 11 11 11 11 11 12 12 12 12 11 11 11 10 10 9 8 7 6 5 3 1
13 14 14 13 13 14 14 14 15 15 15 17 15 13 13 13 12 11 11 11 10 10 10 10 10 10 10 10 10 10 11 11 10 10 10 10 9 8 8 7 5 4 3 1
13 13 12 12 14 14 14 14 14 14 16 14 13 12 12 12 11 11 10 10 10 9 9 9 9 9 9 9 9 9 9 9 9 9 9 9 8 8 7 6 5 3 2 0
11 11 10 14 14 13 13 14 14 14 13 13 12 11 11 11 10 10 10 9 9 8 8 8 8 8 8 8 8 8 9 9 9 8 8 8 7 7 6 5 4 3 2 0
10 10 12 13 13 12 12 13 13 12 12 11 10 11 12 11 10 9 8 8 8 7 7 7 7 7 7 7 7 7 7 7 7 7 7 7 6 6 5 4 3 2 0 -1
9 8 10 14 12 10 11 12 12 11 11 10 10 10 11 9 8 8 8 7 7 6 6 6 6 6 6 6 6 6 6 6 6 6 6 5 5 5 4 3 2 1 -1 -2
9 9 12 13 10 10 11 13 11 11 10 10 10 9 9 8 8 7 7 6 6 6 6 6 6 5 5 5 5 4 5 5 5 5 4 4 4 4 3 2 1 -0 -2 -3
9 9 10 12 10 12 13 11 10 10 9 9 8 8 7 7 7 6 6 6 6 5 6 6 5 4 4 4 3 4 4 4 4 4 4 4 3 3 2 1 -0 -2 -3 -4
10 12 13 10 11 11 10 10 9 9 8 7 7 7 6 6 6 6 5 5 5 5 5 5 4 4 3 3 3 3 3 3 3 3 3 3 2 2 1 0 -1 -2 -4 -5
10 11 11 11 10 10 9 8 8 7 7 6 6 6 5 5 5 5 5 5 4 4 4 4 4 3 3 2 2 1 1 2 2 2 2 2 2 1 0 -0 -2 -3 -4 -5
9 11 10 10 9 8 8 7 6 6 5 5 5 4 4 4 4 4 4 4 4 3 3 3 3 3 2 2 1 0 1 1 0 0 0 0 0 0 -0 -1 -2 -3 -4 -6
10 10 10 9 8 7 6 6 5 5 4 4 4 4 4 4 4 4 4 4 3 3 2 2 2 2 2 1 0 -0 -0 -0 -0 -0 -0 -0 -1 -1 -0 -1 -2 -3 -5 -6
8 8 7 7 6 5 5 4 4 4 4 4 4 3 3 3 3 3 3 3 2 2 2 2 1 1 1 0 -0 -0 -1 -1 -1 -1 -1 -1 -1 -2 -2 -2 -3 -4 -5 -6
6 6 5 5 5 4 4 3 3 3 3 3 3 3 3 3 3 3 3 2 2 2 1 1 0 0 0 -1 -1 -1 -1 -1 -1 -2 -2 -2 -2 -2 -3 -3 -4 -4 -5 -6
5 4 4 4 3 3 3 3 3 3 3 3 3 3 3 2 2 2 2 2 1 0 0 -0 -1 -0 -1 -1 -1 -1 -1 -1 -2 -2 -2 -2 -2 -3 -3 -4 -4 -5 -6 -6
3 3 3 3 3 3 3 2 2 2 2 2 2 2 2 2 1 1 1 -0 -1 -1 -1 -1 -1 -1 -1 -1 -2 -2 -2 -2 -2 -2 -2 -2 -3 -3 -3 -4 -5 -5 -6 -6
2 2 2 2 2 2 2 2 2 2 2 1 1 1 1 0 -0 -1 -1 -1 -1 -1 -1 -1 -2 -2 -2 -2 -2 -2 -2 -2 -2 -2 -2 -2 -3 -3 -4 -4 -5 -6 -6 -7
2 2 2 2 2 1 1 1 1 1 1 1 0 -0 -1 -1 -1 -2 -2 -2 -1 -1 -1 -2 -2 -2 -2 -2 -2 -2 -2 -2 -2 -2 -2 -3 -3 -3 -4 -5 -5 -6 -6 -7
2 2 2 1 1 1 1 1 1 0 0 -0 -1 -1 -2 -2 -2 -2 -2 -2 -2 -2 -2 -2 -2 -2 -2 -2 -2 -2 -2 -2 -2 -2 -3 -3 -3 -4 -4 -5 -6 -6 -7 -7
2 2 1 1 1 1 0 0 0 -0 -1 -1 -1 -2 -2 -2 -2 -2 -2 -3 -2 -3 -3 -3 -3 -3 -2 -2 -2 -2 -2 -2 -2 -3 -3 -3 -4 -4 -5 -5 -6 -6 -7 -7
2 2 1 1 1 0 -0 -0 -1 -1 -1 -2 -2 -2 -2 -2 -2 -3 -3 -4 -3 -3 -4 -4 -4 -3 -3 -3 -3 -3 -2 -2 -3 -3 -3 -4 -4 -5 -5 -6 -6 -7 -7 -8
1 1 0 0 -0 -1 -1 -1 -1 -1 -2 -2 -2 -2 -3 -3 -4 -4 -4 -4 -4 -4 -5 -4 -4 -4 -3 -3 -3 -3 -3 -3 -3 -3 -4 -4 -4 -5 -5 -6 -6 -7 -7 -8
0 0 -0 -1 -1 -1 -2 -1 -1 -2 -2 -2 -2 -3 -4 -4 -4 -5 -5 -4 -5 -5 -5 -5 -4 -4 -3 -3 -3 -3 -3 -3 -3 -3 -4 -4 -5 -5 -6 -6 -7 -7 -7 -8
-0 -0 -1 -1 -1 -2 -2 -2 -2 -2 -2 -2 -2 -3 -4 -5 -5 -5 -5 -5 -5 -5 -5 -5 -4 -4 -3 -3 -3 -3 -3 -3 -3 -4 -4 -5 -5 -6 -6 -7 -7 -7 -7 -7
-0 -1 -1 -2 -2 -3 -3 -3 -3 -3 -3 -3 -3 -4 -5 -5 -6 -6 -6 -6 -6 -5 -5 -5 -4 -4 -3 -3 -3 -3 -3 -3 -4 -4 -5 -5 -6 -6 -7 -7 -7 -7 -7 -7
-1 -2 -2 -2 -2 -2 -3 -3 -4 -4 -4 -5 -5 -5 -5 -5 -6 -6 -6 -6 -6 -6 -5 -5 -4 -4 -3 -3 -3 -3 -3 -4 -4 -4 -5 -6 -6 -7 -7 -7 -7 -7 -7 -7
-2 -2 -2 -2 -2 -2 -3 -4 -4 -5 -5 -6 -6 -5 -5 -6 -6 -6 -7 -6 -6 -6 -5 -5 -5 -4 -4 -3 -3 -3 -4 -4 -4 -5 -6 -6 -7 -7 -7 -7 -7 -7 -7 -7
Wind_Speed
19 19 17 19 21 20 21 23 26 32 32 32 26 18 13 9 9 10 12 15 17 18 18 17 17 15 14 13 10 8 9 11 13 13 13 14 14 15 16 17 18 19 20 20
16 17 19 24 26 29 29 28 30 31 31 21 10 8 10 11 11 12 14 17 19 19 19 18 18 17 16 15 12 10 11 12 12 11 12 13 14 14 15 17 17 18 19 20
18 16 15 18 19 21 18 18 18 20 16 9 10 12 14 14 12 13 17 20 21 20 19 19 18 17 16 16 14 12 12 12 11 11 12 13 13 14 15 16 17 18 19 20
10 8 12 10 4 9 14 17 17 17 13 10 11 14 14 13 12 17 20 21 20 19 19 18 18 16 15 15 14 13 12 12 11 10 12 12 13 14 15 14 15 16 18 20
5 9 14 12 8 5 6 10 7 3 5 11 14 16 14 12 15 19 20 20 19 18 18 18 17 15 15 16 15 14 13 13 11 10 11 12 13 14 13 13 15 15 16 19
6 6 8 8 1 1 4 7 2 3 12 17 20 20 18 18 20 21 20 18 17 16 17 17 16 15 15 16 15 15 14 14 14 13 12 13 14 14 12 13 14 14 15 17
10 10 11 8 1 2 5 5 4 13 19 20 19 18 20 22 20 19 19 18 16 15 15 16 16 15 15 16 16 15 15 15 15 14 13 14 13 12 11 11 12 14 15 15
7 9 11 3 4 5 9 11 16 21 21 20 21 21 21 20 19 17 16 16 15 14 15 16 16 15 16 17 17 16 16 16 15 14 13 11 12 12 11 11 12 13 13 14
9 11 9 3 8 12 15 20 21 19 20 20 21 21 20 17 16 15 15 14 14 14 16 17 16 15 17 18 17 16 16 16 15 15 13 11 11 11 10 10 10 10 11 11
14 17 19 19 20 20 19 19 20 20 20 19 19 17 14 13 13 14 14 15 15 16 17 18 18 17 17 18 16 16 16 16 14 14 13 12 9 9 9 9 10 10 11 11
21 22 21 17 15 16 18 21 22 19 16 14 12 11 11 12 13 14 14 15 15 16 17 19 19 19 18 17 16 16 16 15 14 12 13 12 10 9 11 11 12 11 11 10
22 21 21 23 21 21 21 20 16 14 11 9 7 9 11 12 13 14 15 16 16 18 19 20 19 19 18 16 15 15 14 13 12 11 11 10 11 11 13 15 18 19 19 16
25 23 21 22 20 18 17 13 10 8 8 8 8 9 11 13 14 15 17 18 18 19 19 20 19 19 18 16 15 14 14 14 12 11 11 11 10 11 11 10 14 18 20 21
18 19 22 20 18 14 11 9 7 6 6 7 9 11 12 14 15 17 18 18 19 19 20 19 19 19 18 16 14 14 14 13 12 11 11 11 11 10 10 10 9 8 11 17
15 15 17 16 13 10 7 6 6 6 8 10 10 12 13 15 17 19 19 19 19 19 19 19 20 20 17 15 14 15 13 11 11 11 11 11 10 10 10 10 9 9 7 9
16 15 13 11 10 8 6 5 6 9 11 12 14 15 16 17 18 19 19 18 19 20 20 19 19 19 17 16 15 13 12 15 15 12 11 11 10 9 9 9 9 8 8 7
11 9 7 7 6 6 6 7 9 11 13 15 17 17 18 19 20 20 20 19 18 19 19 19 18 17 16 15 15 12 12 13 16 13 11 10 10 10 9 8 8 8 8 8
5 5 5 5 6 7 9 10 12 14 15 17 18 18 19 20 21 21 20 19 19 19 19 17 16 16 16 16 14 12 11 11 11 11 11 10 10 9 9 9 9 9 7 7
2 3 4 6 7 9 11 13 15 16 16 17 18 19 20 20 19 19 19 19 19 19 16 15 21 19 17 17 16 12 12 12 12 11 10 12 12 9 8 8 8 8 7 6
4 5 7 9 10 10 13 15 17 17 17 17 19 19 20 19 18 18 18 17 15 14 15 18 19 17 16 16 17 12 12 12 13 12 11 10 10 9 8 7 7 7 7 7
8 9 10 12 14 15 15 17 17 18 18 17 18 19 19 19 18 16 16 17 15 15 17 21 16 14 15 16 19 13 12 12 12 11 10 9 9 8 7 7 7 7 7 6
10 12 14 15 17 18 17 16 17 18 18 18 17 17 17 18 17 16 15 14 16 18 17 15 14 17 20 23 14 12 12 12 11 10 9 9 8 7 6 6 6 6 6 6
13 15 16 17 18 19 18 16 16 16 17 17 18 18 18 17 15 15 16 14 14 20 18 16 19 26 28 17 12 11 12 12 10 9 9 8 7 6 6 6 6 6 6 6
16 16 16 16 15 17 18 16 14 14 15 16 16 16 16 15 14 13 14 18 21 23 17 19 26 27 25 12 11 11 11 10 10 9 8 7 6 5 4 5 5 5 6 7
15 14 14 14 15 14 15 14 13 13 15 14 16 16 14 12 14 15 16 17 20 22 17 19 24 24 16 11 11 10 10 9 9 8 7 5 4 4 3 4 5 5 6 6
14 14 13 13 13 13 12 12 12 12 13 14 14 14 13 13 14 15 14 16 19 20 17 14 14 15 12 11 11 10 9 9 8 7 5 4 4 3 3 4 6 5 5 6
13 13 12 12 11 11 10 11 12 13 13 14 15 15 15 14 14 15 16 15 15 14 14 13 12 12 11 10 10 9 7 6 6 5 4 3 2 2 3 5 5 5 5 6
Wind_Direction
264 276 279 273 270 262 253 258 267 276 282 290 305 321 329 332 336 341 345 347 345 340 336 332 330 328 326 320 311 293 272 261 259 260 257 254 250 246 241 237 234 231 229 227
270 271 274 274 268 264 263 263 264 272 279 294 323 341 336 333 333 332 335 337 335 331 328 325 323 321 319 315 313 301 282 274 272 267 261 256 253 248 242 238 235 232 230 228
282 293 291 273 262 257 252 251 259 269 288 337 339 337 331 325 323 326 327 328 325 323 321 318 317 316 313 311 310 301 289 282 277 271 266 261 256 250 245 241 237 233 231 229
285 289 255 264 290 262 264 266 267 272 293 323 330 322 312 311 318 323 323 321 319 318 315 312 311 311 310 308 305 301 295 290 284 275 271 270 263 256 251 245 239 235 232 230
255 265 275 280 278 258 259 279 288 297 341 337 331 316 310 325 324 317 316 313 312 312 309 308 308 312 311 307 306 303 299 298 294 280 275 273 268 262 256 249 244 240 236 233
226 246 267 285 100 353 277 278 112 357 333 329 328 318 316 325 318 314 312 312 312 312 309 307 311 314 309 307 307 306 307 305 302 295 285 279 274 271 262 252 247 243 239 235
232 246 267 280 297 223 251 316 350 320 320 318 314 307 309 313 311 310 311 312 314 313 309 309 313 313 307 306 306 309 308 305 301 297 291 286 282 274 265 255 249 244 242 238
223 232 252 213 174 228 297 319 312 311 313 312 309 308 309 310 310 311 312 313 316 314 310 311 313 312 307 306 310 311 308 304 301 301 297 289 283 277 266 256 250 247 244 242
226 241 269 233 256 289 304 303 307 309 309 307 305 305 307 308 310 312 311 312 314 312 309 309 311 311 306 306 310 309 306 303 303 303 299 291 283 277 268 255 248 247 243 242
263 262 271 278 284 291 298 304 307 306 305 303 300 303 306 309 310 311 311 314 315 312 309 309 312 310 306 307 307 304 303 304 304 303 300 296 283 271 263 254 248 245 242 241
263 275 284 281 286 298 306 305 304 303 302 301 302 305 310 309 309 311 311 311 311 308 306 306 309 308 307 308 308 305 303 302 302 300 298 297 286 271 263 255 249 245 245 242
267 280 289 294 303 306 304 302 302 302 302 304 305 306 308 306 307 307 307 308 307 306 306 307 308 306 307 308 307 304 301 301 301 301 299 294 292 287 263 256 259 252 248 245
271 286 291 296 300 300 297 296 297 294 295 302 307 307 305 304 305 306 305 306 306 306 305 305 306 305 307 309 306 301 297 298 298 296 296 295 293 290 292 280 258 254 251 246
281 289 290 294 298 300 294 293 290 286 292 297 300 303 304 303 303 304 305 307 307 305 304 304 305 304 308 310 306 299 297 295 293 293 293 292 290 286 284 285 284 273 255 247
286 287 288 293 294 293 288 287 290 299 306 307 306 304 303 303 303 303 305 307 306 304 304 306 306 305 310 310 304 299 297 294 293 292 290 288 286 283 278 273 270 271 266 255
296 293 287 282 285 290 290 290 295 302 305 305 306 305 305 302 301 301 303 306 307 306 306 306 303 304 308 306 302 298 293 289 292 291 289 287 283 278 273 268 265 260 256 250
291 292 295 292 294 298 297 296 296 297 300 301 303 305 304 303 303 303 307 309 306 302 301 301 300 302 303 301 298 296 293 292 291 289 285 283 280 276 270 265 260 256 251 242
278 283 294 297 301 304 304 303 300 299 298 299 302 302 302 302 303 304 306 306 305 302 301 302 304 306 303 300 298 294 292 289 288 287 286 284 281 272 265 259 255 251 248 239
346 324 315 306 302 300 299 299 300 299 298 298 299 299 300 298 297 299 302 303 302 302 303 306 308 307 302 300 299 294 290 290 290 289 287 287 285 272 261 254 248 242 234 227
290 290 293 296 296 293 294 297 299 299 300 300 299 298 298 298 298 299 300 297 292 292 298 303 305 303 301 301 301 296 291 292 292 291 289 286 282 274 263 251 240 232 224 219
273 278 284 290 295 296 296 297 299 300 301 300 296 295 295 297 297 297 297 298 298 302 305 306 305 302 303 304 304 299 297 296 295 294 293 289 282 273 261 245 230 222 217 210
275 283 287 291 294 296 297 298 298 299 300 298 296 294 295 297 297 296 289 290 298 303 307 305 303 302 306 307 303 300 298 296 294 292 290 285 278 269 255 237 223 213 207 201
281 285 288 290 293 296 298 296 293 295 295 296 296 297 297 299 299 297 298 300 303 304 307 301 302 305 308 309 301 298 298 297 296 293 289 284 277 265 250 231 216 204 196 190
282 285 285 287 291 293 292 292 290 291 291 293 291 289 292 296 296 294 295 300 304 303 303 300 303 306 311 307 300 298 299 298 296 294 291 285 274 261 243 222 205 193 186 181
280 281 282 285 287 288 288 291 292 292 293 295 296 296 294 292 294 299 300 301 303 304 302 302 304 307 308 299 298 299 299 296 296 294 289 283 273 256 231 207 191 181 177 176
280 284 285 283 282 285 287 289 291 294 298 300 300 302 302 302 300 301 301 302 302 302 302 301 303 305 302 299 299 299 297 298 298 294 288 282 264 243 213 190 178 173 169 166
280 282 282 282 281 279 280 284 289 293 297 298 300 302 303 304 303 305 305 304 304 302 303 303 303 302 301 299 300 299 297 297 295 291 285 271 250 219 186 173 167 159 156 156
Height
1520 1518 1519 1518 1516 1514 1513 1506 1500 1483 1479 1471 1471 1475 1476 1475 1473 1471 1468 1465 1461 1457 1453 1448 1443 1439 1434 1430 1425 1421 1416 1412 1408 1404 1400 1396 1392 1389 1386 1383 1380 1378 1376 1375
1521 1518 1516 1513 1507 1502 1498 1494 1489 1482 1477 1474 1476 1477 1476 1474 1472 1469 1466 1463 1459 1455 1450 1445 1440 1435 1429 1424 1420 1415 1410 1406 1401 1397 1392 1388 1384 1380 1376 1373 1370 1368 1365 1364
1515 1512 1515 1505 1491 1489 1487 1483 1482 1478 1473 1476 1477 1477 1475 1473 1470 1467 1464 1460 1456 1451 1446 1441 1435 1429 1424 1418 1413 1408 1403 1399 1394 1389 1385 1380 1375 1371 1367 1364 1361 1357 1355 1354
1516 1518 1514 1487 1484 1484 1482 1478 1476 1475 1477 1479 1479 1477 1473 1470 1467 1464 1460 1456 1451 1446 1440 1435 1429 1423 1417 1412 1407 1401 1396 1391 1387 1382 1377 1372 1367 1363 1358 1354 1350 1347 1345 1343
1520 1512 1495 1484 1482 1482 1481 1476 1475 1476 1477 1477 1475 1471 1467 1466 1464 1461 1456 1451 1445 1440 1434 1428 1422 1416 1410 1405 1400 1394 1389 1384 1379 1374 1368 1364 1359 1355 1350 1346 1342 1339 1336 1334
1517 1518 1500 1478 1481 1482 1482 1475 1475 1475 1475 1473 1470 1465 1461 1462 1459 1454 1449 1444 1439 1433 1427 1421 1416 1409 1403 1398 1392 1387 1382 1376 1371 1366 1361 1356 1351 1346 1342 1337 1333 1330 1327 1325
1511 1507 1487 1477 1481 1482 1481 1472 1475 1473 1471 1470 1467 1464 1460 1456 1452 1448 1443 1437 1432 1426 1421 1415 1409 1403 1397 1391 1386 1380 1374 1369 1364 1359 1353 1348 1343 1338 1334 1329 1325 1322 1319 1317
1503 1500 1488 1476 1478 1476 1472 1472 1471 1469 1467 1464 1461 1457 1453 1449 1445 1441 1436 1431 1425 1420 1415 1409 1403 1397 1390 1385 1379 1373 1367 1362 1357 1352 1346 1341 1336 1331 1326 1322 1318 1314 1312 1309
1489 1481 1473 1474 1473 1472 1472 1469 1467 1465 1462 1459 1454 1450 1447 1443 1439 1434 1430 1425 1419 1414 1408 1402 1397 1391 1384 1378 1372 1366 1360 1354 1349 1344 1340 1334 1329 1324 1319 1315 1311 1307 1305 1303
1481 1471 1471 1471 1470 1469 1468 1465 1462 1460 1456 1452 1448 1444 1441 1437 1433 1429 1424 1419 1414 1408 1401 1395 1390 1384 1378 1371 1364 1358 1353 1347 1343 1338 1333 1328 1323 1318 1313 1308 1304 1301 1298 1296
1473 1468 1467 1465 1466 1465 1463 1460 1457 1453 1450 1446 1442 1439 1436 1432 1428 1424 1419 1414 1408 1402 1395 1388 1382 1376 1371 1365 1358 1352 1346 1341 1336 1331 1326 1321 1316 1312 1306 1302 1299 1295 1293 1291
1463 1463 1462 1460 1461 1459 1456 1453 1450 1447 1443 1441 1438 1435 1432 1428 1424 1419 1413 1408 1402 1395 1388 1382 1375 1369 1364 1358 1352 1346 1340 1335 1330 1325 1320 1315 1309 1304 1299 1296 1291 1288 1286 1285
1462 1460 1459 1456 1455 1453 1450 1447 1444 1442 1439 1437 1434 1431 1428 1423 1419 1413 1407 1401 1395 1388 1381 1374 1368 1362 1356 1351 1345 1340 1334 1329 1324 1319 1314 1309 1304 1298 1293 1288 1285 1281 1279 1278
1460 1457 1453 1451 1448 1446 1443 1441 1439 1437 1435 1433 1430 1427 1423 1418 1412 1406 1400 1394 1387 1380 1373 1367 1360 1355 1350 1344 1338 1333 1328 1324 1319 1314 1309 1303 1298 1293 1288 1283 1279 1276 1274 1273
1455 1452 1449 1445 1443 1440 1438 1437 1435 1433 1431 1429 1426 1421 1417 1411 1405 1399 1392 1386 1379 1372 1366 1360 1353 1347 1343 1337 1332 1327 1322 1317 1313 1308 1303 1298 1293 1287 1282 1278 1274 1271 1268 1267
1449 1446 1443 1440 1438 1437 1435 1434 1432 1429 1427 1423 1419 1415 1410 1403 1397 1390 1384 1378 1371 1364 1358 1352 1346 1340 1336 1330 1325 1320 1315 1311 1306 1301 1296 1291 1286 1281 1277 1272 1269 1266 1264 1263
1444 1441 1439 1437 1436 1434 1433 1431 1429 1426 1422 1417 1413 1407 1401 1395 1388 1382 1377 1371 1364 1357 1351 1345 1339 1334 1329 1324 1319 1314 1309 1304 1300 1295 1289 1284 1280 1275 1271 1267 1264 1261 1260 1259
1441 1439 1437 1436 1434 1432 1430 1427 1424 1420 1416 1411 1405 1399 1393 1387 1380 1373 1367 1361 1355 1349 1344 1339 1333 1327 1322 1317 1312 1307 1302 1297 1292 1288 1283 1278 1273 1268 1264 1261 1258 1256 1255 1255
1439 1437 1435 1433 1431 1428 1425 1421 1417 1413 1408 1403 1397 1391 1385 1378 1372 1365 1359 1353 1346 1340 1335 1331 1325 1320 1315 1310 1306 1300 1296 1291 1285 1280 1275 1270 1265 1261 1258 1255 1253 1252 1251 1251
1436 1434 1431 1429 1426 1423 1419 1414 1410 1405 1400 1395 1388 1381 1375 1370 1364 1358 1351 1345 1340 1334 1328 1322 1317 1312 1307 1303 1298 1294 1289 1284 1278 1273 1268 1263 1259 1255 1252 1250 1248 1247 1247 1247
1431 1428 1425 1422 1419 1415 1412 1407 1402 1396 1391 1386 1380 1373 1366 1360 1356 1350 1343 1336 1331 1327 1321 1315 1310 1305 1300 1296 1291 1287 1282 1276 1271 1266 1261 1257 1253 1249 1247 1245 1243 1243 1243 1244
1425 1422 1418 1415 1411 1407 1403 1399 1393 1387 1382 1376 1371 1364 1358 1352 1346 1341 1336 1331 1324 1319 1313 1308 1303 1298 1294 1289 1284 1279 1274 1269 1264 1260 1255 1251 1247 1244 1242 1240 1240 1240 1240 1242
1418 1415 1411 1407 1403 1398 1393 1389 1384 1379 1373 1368 1362 1356 1351 1345 1339 1333 1326 1322 1317 1311 1306 1300 1295 1291 1287 1282 1277 1273 1268 1263 1258 1254 1249 1245 1242 1240 1238 1237 1236 1237 1238 1239
1410 1406 1402 1398 1394 1388 1383 1379 1375 1370 1365 1360 1354 1348 1343 1336 1330 1326 1320 1314 1309 1304 1298 1293 1288 1284 1280 1275 1271 1266 1262 1257 1253 1248 1244 1240 1237 1235 1234 1233 1233 1234 1236 1238
1400 1396 1392 1389 1384 1379 1375 1370 1366 1361 1356 1351 1346 1340 1336 1330 1324 1318 1312 1306 1301 1296 1290 1285 1282 1277 1273 1269 1265 1260 1256 1252 1248 1244 1239 1236 1234 1232 1231 1231 1231 1232 1234 1237
1391 1387 1383 1380 1376 1371 1367 1363 1358 1353 1348 1343 1337 1333 1328 1323 1317 1311 1305 1299 1294 1289 1284 1280 1275 1271 1267 1263 1259 1255 1251 1247 1243 1239 1235 1233 1231 1229 1229 1229 1230 1232 1234 1236
1381 1377 1374 1370 1367 1363 1359 1355 1351 1346 1341 1336 1330 1325 1320 1315 1309 1304 1299 1293 1288 1283 1279 1274 1270 1266 1262 1258 1254 1250 1246 1242 1239 1235 1232 1230 1228 1228 1228 1228 1230 1232 1234 1237